Orbital Elements at Epoch 2459200.5 (2020-Dec-17.0) TDB
Reference: JPL 18 (heliocentric ecliptic J2000)
Element | Value | Uncertainty (1-sigma) | Units |
e | .07979803357067952 | 6.191e-08 | |
a | 2.762827532928606 | 2.004e-08 | au |
q | 2.542359328705971 | 1.6518e-07 | au |
i | 8.405160437472103 | 6.8073e-06 | deg |
node | 235.1071944436499 | 2.9583e-05 | deg |
peri | 316.0709335278792 | 4.4852e-05 | deg |
M | 82.17148418024023 | 3.1897e-05 | deg |
tp | 2458817.633189536705 (2019-Nov-30.13318954) | 0.00014888 | TDB |
period | 1677.370843934818 4.59 | 1.825e-05 4.997e-08 | d yr |
n | .2146215914636402 | 2.3351e-09 | deg/d |
Q | 2.983295737151241 | 2.1639e-08 | au |
|
| | Orbit Determination Parameters
Additional Information
|